Temperature
18 17 17 17 17 17 17 18 18 18 18 18 18 17 17 17 17 17 17 17 17 17 17 17 17 17 17 17 17 17 17 17 17 17 17 17 17 17 17 17 17 17 18
18 18 18 17 17 17 18 18 18 18 18 18 17 17 17 16 16 16 16 16 16 17 17 17 17 17 17 17 17 17 17 17 17 17 17 17 17 17 17 17 17 17 17
18 18 18 18 18 18 18 18 18 18 18 17 17 17 17 17 16 16 16 16 16 16 17 17 17 17 17 17 17 17 17 17 17 17 17 17 17 17 17 17 17 17 17
18 18 18 18 18 18 18 18 18 18 17 17 17 17 17 17 17 17 16 16 16 16 16 16 16 17 17 17 17 17 17 17 17 17 17 16 16 16 16 16 16 17 17
18 18 18 18 18 18 18 18 17 17 17 17 17 17 17 16 17 17 16 16 16 16 17 17 17 17 17 17 17 16 16 17 17 17 17 17 16 16 16 16 16 17 17
18 18 18 18 18 18 18 17 17 17 17 17 17 16 16 16 17 17 16 16 16 16 17 17 17 17 17 17 17 17 16 16 16 16 16 17 17 17 16 16 16 16 17
18 18 18 18 18 18 17 17 17 17 17 17 17 16 16 16 16 16 16 16 16 16 16 16 17 17 17 17 17 17 16 16 16 16 16 16 17 17 17 16 16 16 16
18 18 18 17 17 17 17 17 17 17 17 16 16 16 16 16 16 16 16 16 16 16 16 16 16 16 16 17 17 17 16 16 16 16 16 16 16 16 16 16 16 16 16
17 17 17 17 17 17 17 17 16 17 17 16 16 16 16 16 16 16 16 16 16 16 16 16 16 15 16 16 17 17 16 16 16 16 16 16 16 16 16 16 16 16 16
17 17 17 17 17 17 17 16 16 16 16 16 16 16 17 17 16 16 16 16 16 16 16 16 16 15 16 16 16 16 16 16 16 16 16 16 16 16 16 16 16 16 15
17 17 17 17 17 17 16 16 16 16 16 16 16 16 17 17 17 17 16 16 16 16 16 16 16 15 15 16 16 16 16 16 16 16 16 16 16 16 15 15 15 15 15
16 16 16 16 16 16 16 16 15 15 15 16 16 16 16 17 17 17 17 17 16 16 16 15 15 15 15 16 16 16 16 16 16 16 16 16 16 16 15 15 15 15 15
16 16 16 16 16 16 16 15 15 15 15 15 16 16 16 16 17 17 18 17 17 16 16 16 16 16 16 16 16 16 16 16 16 16 15 15 15 15 15 15 15 15 15
16 15 15 15 15 15 15 15 15 15 15 15 15 16 16 16 17 17 17 17 17 16 16 16 16 16 16 16 16 16 16 16 16 16 15 15 15 15 15 15 15 15 15
15 15 15 15 15 15 15 15 15 15 15 15 15 15 16 15 16 17 17 17 17 16 16 16 15 16 15 16 16 15 16 16 15 15 15 15 14 14 15 14 14 14 14
15 15 15 14 14 15 15 14 14 14 14 14 15 15 15 15 15 16 17 17 17 17 16 16 16 16 15 15 15 15 16 15 15 15 15 15 14 14 14 15 14 14 14
16 15 15 14 14 14 14 14 14 14 14 14 14 14 15 15 15 15 16 16 16 16 16 16 16 15 15 15 15 15 15 15 15 15 15 15 14 14 14 15 15 14 14
16 15 15 15 14 14 14 14 14 14 13 13 13 13 14 14 14 14 15 15 16 16 16 16 16 15 15 15 15 15 15 15 15 15 15 15 14 14 14 14 15 15 15
16 15 15 15 15 14 14 14 14 14 13 13 13 13 13 13 13 14 14 15 15 15 15 15 15 15 15 14 14 14 14 14 14 15 15 15 15 14 14 14 14 15 15
16 15 15 15 15 15 15 14 14 14 13 13 13 13 13 13 13 13 14 14 15 15 15 15 15 15 15 14 14 14 14 14 14 15 15 15 15 14 14 14 14 14 15
16 15 15 15 15 15 15 15 14 14 14 13 13 13 13 13 13 13 13 14 14 14 14 14 14 15 15 15 14 14 14 13 13 14 14 15 15 14 14 14 14 14 14
16 15 15 15 15 15 15 15 15 14 14 14 14 14 14 13 13 14 14 14 14 14 14 14 14 14 15 15 15 14 13 13 13 14 14 14 15 15 15 15 14 14 13
16 15 15 15 15 15 15 15 15 14 14 14 14 14 14 14 14 14 14 14 14 14 14 14 15 15 15 14 14 14 13 13 14 14 14 14 14 14 14 15 14 14 13
15 15 15 15 15 15 15 15 15 15 15 14 14 14 14 14 14 14 14 14 14 14 14 15 15 15 14 14 14 14 14 13 13 13 13 13 13 14 13 14 14 13 13
15 15 15 15 15 15 15 15 15 15 15 15 15 15 15 15 15 14 14 14 14 14 14 14 14 14 14 14 14 14 14 13 13 13 13 13 13 13 13 14 14 13 13
14 14 14 14 14 14 14 15 14 14 14 15 15 15 15 15 14 14 14 14 14 14 14 14 14 14 14 14 14 14 14 13 13 13 13 13 13 12 12 13 14 14 14
Wind_Speed
6 6 5 6 7 7 4 2 1 3 5 7 8 7 8 11 13 11 11 13 13 12 11 12 11 11 12 11 10 8 7 6 5 5 6 5 5 6 7 7 7 7 8
4 6 6 4 3 6 6 2 4 3 5 4 6 5 5 9 13 13 12 15 17 16 14 14 14 13 13 13 12 11 10 9 7 6 5 5 4 5 6 7 7 7 8
6 5 5 5 3 6 6 3 4 4 5 4 5 5 4 4 9 12 12 12 14 17 18 17 17 16 16 14 13 12 11 10 9 7 6 5 5 4 5 5 6 6 7
9 5 5 6 5 6 3 5 4 3 4 3 3 3 3 2 5 9 11 11 11 13 15 17 18 17 17 15 13 12 11 10 9 8 7 6 5 4 4 4 4 5 6
10 6 5 5 6 3 4 6 4 3 4 4 4 2 3 2 2 4 7 9 10 13 12 14 16 16 16 16 16 13 11 10 9 8 7 7 6 4 3 4 4 4 5
7 6 5 5 5 5 4 4 5 4 4 4 3 3 2 1 4 5 5 6 8 11 12 13 13 14 15 15 15 14 11 9 9 10 9 8 6 5 3 2 2 3 4
5 4 6 6 5 5 5 5 5 5 3 3 3 2 1 0 5 1 2 4 4 7 8 10 12 13 12 15 15 15 13 11 13 13 13 11 9 6 4 2 1 1 3
6 4 8 5 4 5 7 5 5 4 2 2 4 3 1 1 1 3 2 2 5 3 5 9 9 11 13 12 14 15 16 16 15 15 14 13 11 8 6 4 2 1 1
6 4 6 6 5 4 5 6 6 6 4 2 2 4 4 4 2 2 5 3 4 2 0 3 8 11 15 13 12 13 14 14 14 14 14 13 12 10 8 7 6 4 2
6 5 4 6 6 5 5 6 6 5 6 4 4 4 5 5 4 3 2 3 6 4 3 2 4 8 15 14 12 11 11 12 12 13 13 13 13 13 11 10 9 9 8
7 6 6 7 7 6 6 6 5 7 6 6 5 5 5 3 4 4 4 4 3 4 4 4 3 5 11 14 13 10 10 11 11 12 12 12 13 14 15 14 13 12 10
5 7 7 7 7 6 7 7 7 8 8 9 8 8 6 3 3 3 4 6 5 5 5 4 4 5 8 12 12 11 9 9 9 10 10 10 11 12 12 13 13 12 11
4 6 7 7 6 7 7 7 8 8 9 11 11 10 7 6 5 4 4 5 5 4 4 4 4 7 8 12 13 12 9 8 8 9 9 9 10 10 10 10 10 10 10
3 4 5 5 6 7 7 8 8 9 8 10 12 10 7 6 6 5 3 4 4 3 3 5 5 6 9 12 15 14 12 10 9 8 8 8 8 8 8 8 8 8 8
2 2 3 3 3 4 5 6 6 7 8 8 9 9 6 7 6 4 2 3 6 5 5 4 4 6 9 10 17 14 14 13 11 9 8 7 6 6 5 5 6 6 6
4 4 3 4 4 3 3 4 4 5 6 6 7 7 5 5 5 3 2 1 3 6 5 5 5 6 7 10 14 11 15 15 13 12 9 7 6 4 4 4 5 6 6
5 5 5 4 5 5 4 4 4 5 7 7 6 7 6 2 4 3 1 2 2 3 5 4 4 5 7 8 7 8 15 14 13 13 11 8 6 3 2 3 5 6 6
6 6 6 6 6 6 5 5 5 5 6 7 7 7 5 3 2 3 2 1 2 3 4 5 4 4 6 9 9 7 10 12 13 14 13 11 8 5 2 1 3 4 5
8 7 7 7 7 7 7 6 5 4 4 4 6 7 7 6 3 1 2 2 2 3 3 3 4 4 3 6 8 7 6 5 11 14 14 12 10 8 5 3 0 1 2
8 8 8 7 7 8 8 7 7 6 6 5 5 6 7 7 6 3 0 1 2 3 4 3 4 3 3 2 6 6 5 4 5 9 11 12 12 11 8 6 4 3 3
6 7 6 7 7 7 8 9 8 8 7 7 7 7 7 9 10 7 4 3 2 2 3 4 5 4 4 3 5 5 6 5 5 5 5 6 8 8 10 10 9 7 7
5 5 5 6 7 7 10 13 10 8 8 9 9 9 9 11 14 15 14 11 8 6 5 6 6 6 7 7 5 5 6 5 5 6 7 7 5 7 9 13 15 13 11
6 5 5 4 5 6 12 13 12 6 7 8 9 9 10 12 15 12 15 17 15 17 15 9 7 8 7 8 9 8 8 8 7 5 6 6 7 7 8 16 22 19 15
5 7 7 6 5 6 11 12 11 6 5 6 8 9 10 10 12 13 12 11 11 12 13 11 9 7 6 6 10 11 9 7 6 4 7 5 6 6 4 11 23 21 18
5 5 5 6 6 6 10 10 9 5 5 6 6 6 5 5 9 14 10 7 6 5 3 6 5 4 4 2 3 5 7 6 5 4 5 4 5 5 4 5 15 21 20
4 4 3 2 2 3 9 10 9 4 4 4 4 2 2 5 5 7 6 5 4 3 4 4 4 4 4 5 6 5 7 6 5 5 6 5 4 5 4 4 6 13 15
Wind_Direction
160 158 170 174 192 169 197 247 110 50 49 41 63 86 102 108 102 92 79 82 85 86 92 94 91 87 84 81 83 89 96 103 110 108 108 105 93 82 74 68 61 42 28
161 161 167 170 175 154 187 189 102 94 72 54 52 47 81 118 124 119 100 83 82 83 86 89 88 84 82 80 80 82 83 83 86 92 103 112 107 92 81 77 72 57 36
172 163 166 167 176 181 185 153 116 100 106 111 85 64 37 55 121 125 124 110 89 81 84 85 84 81 78 77 79 79 78 77 76 75 84 102 108 97 87 85 78 62 43
185 167 161 169 191 190 153 120 123 118 125 127 117 116 107 356 97 127 129 128 121 100 88 87 83 80 77 73 72 76 75 74 74 73 74 80 91 93 98 97 85 64 47
194 167 166 176 189 163 143 147 149 142 129 100 82 52 91 77 53 107 117 118 124 126 117 100 92 84 78 71 67 68 70 71 75 77 76 73 72 80 101 109 89 63 48
206 167 153 188 185 157 149 152 141 129 124 136 155 101 60 115 75 51 82 114 119 125 141 132 112 95 83 74 65 58 58 70 79 79 75 71 65 63 72 97 93 69 53
235 171 163 192 193 161 159 161 134 131 126 157 117 109 262 301 104 132 113 103 107 135 142 138 141 126 100 78 66 59 57 75 82 79 72 64 58 54 51 53 103 95 73
245 210 178 174 175 158 166 176 134 136 164 183 140 141 220 356 327 155 85 143 156 162 153 143 136 136 125 98 74 67 62 70 74 71 63 55 50 53 57 57 64 85 123
239 233 201 174 174 163 170 175 151 152 172 229 180 156 174 199 208 176 198 202 129 127 84 123 142 125 116 112 88 71 70 66 67 65 60 56 54 60 63 64 63 64 72
222 228 221 198 183 172 172 184 176 165 165 202 248 218 197 169 168 175 212 198 167 182 149 76 73 106 116 111 103 89 78 71 67 66 63 61 59 60 62 62 64 63 62
206 206 214 207 197 183 185 187 195 183 182 187 224 254 247 217 204 147 182 195 174 179 168 169 142 111 120 129 119 104 91 80 73 68 64 60 58 57 57 57 58 57 54
203 209 210 209 204 198 199 201 210 203 197 194 209 237 231 204 232 191 170 179 179 194 171 155 152 135 130 131 129 124 111 98 87 80 71 64 59 54 52 51 51 51 48
196 214 210 212 211 212 210 208 216 223 210 202 206 224 235 206 206 227 175 179 177 172 157 163 176 158 160 142 144 143 136 126 111 97 85 73 63 57 52 48 46 46 46
186 206 201 208 217 219 217 215 218 223 221 213 211 214 243 235 209 218 187 158 149 166 168 183 178 167 179 165 164 161 157 151 142 123 105 88 74 64 54 46 41 40 43
167 191 178 187 199 207 213 214 216 220 218 215 206 205 225 255 226 199 172 139 146 170 209 213 163 178 176 156 165 175 169 168 161 150 134 118 99 79 60 42 30 28 32
170 165 204 187 172 177 198 207 219 222 218 216 206 198 213 262 260 210 169 164 153 162 194 213 192 173 165 162 181 192 166 169 169 166 159 146 126 94 57 30 16 12 16
170 185 201 200 177 176 187 196 211 217 222 221 212 198 199 250 296 275 188 180 216 176 188 219 197 177 163 161 162 161 158 171 175 178 175 168 153 125 63 19 7 6 10
184 201 195 199 185 179 180 184 200 206 213 214 200 178 161 158 12 305 302 252 259 258 205 203 201 189 178 171 162 180 182 188 176 185 185 183 179 176 174 15 6 10 21
188 204 203 197 187 176 178 179 178 175 173 175 171 157 139 129 115 12 359 346 306 294 279 207 209 205 201 174 163 186 194 187 173 181 187 191 191 193 197 203 222 37 67
194 202 210 196 183 177 176 177 176 171 165 161 159 150 144 144 152 150 310 329 326 303 289 255 224 206 215 186 166 177 196 196 175 175 189 191 197 201 204 207 204 183 152
213 211 210 197 187 180 185 181 178 183 181 184 188 187 184 183 184 189 206 226 257 276 284 266 238 208 196 187 196 184 189 189 202 184 171 183 182 196 206 211 205 191 173
229 235 219 204 192 195 184 179 179 187 188 195 201 204 205 206 207 211 219 225 223 231 245 253 241 221 208 199 197 194 185 185 210 199 175 193 177 199 205 204 199 188 178
218 240 244 226 206 172 166 175 185 192 201 207 210 209 213 213 210 216 224 232 237 239 235 237 241 230 215 199 196 205 204 199 205 193 170 201 191 204 205 199 186 184 181
229 221 230 236 230 188 181 181 183 206 236 237 225 216 214 215 208 209 217 224 229 233 232 226 230 232 224 205 197 204 205 206 214 187 160 192 187 196 173 166 179 183 185
279 259 239 232 231 204 191 187 177 205 239 256 258 243 224 222 210 199 204 220 233 230 204 179 172 151 140 178 217 189 187 188 203 196 182 189 178 177 171 169 188 190 191
328 330 317 300 260 209 189 192 194 214 244 269 292 280 160 130 124 174 198 212 233 237 165 152 157 173 201 211 211 198 184 185 188 190 188 185 174 150 192 191 174 190 197
Height
1530 1530 1532 1533 1534 1536 1538 1539 1541 1542 1541 1541 1542 1542 1541 1541 1541 1540 1540 1540 1540 1540 1540 1541 1541 1542 1543 1543 1544 1545 1545 1546 1547 1548 1549 1550 1550 1551 1551 1551 1550 1550 1550
1530 1530 1533 1533 1535 1536 1538 1540 1541 1542 1542 1543 1543 1543 1543 1543 1542 1542 1541 1541 1541 1541 1541 1542 1542 1542 1543 1543 1544 1545 1545 1546 1546 1547 1548 1549 1550 1550 1550 1550 1550 1550 1550
1529 1530 1532 1533 1535 1536 1538 1540 1541 1543 1543 1544 1544 1544 1544 1545 1544 1544 1543 1543 1543 1543 1543 1543 1543 1543 1544 1544 1545 1545 1545 1546 1546 1547 1548 1549 1549 1550 1550 1550 1550 1550 1550
1527 1529 1531 1532 1534 1535 1537 1538 1540 1542 1544 1545 1545 1545 1545 1546 1546 1546 1545 1545 1545 1545 1545 1544 1545 1545 1545 1545 1545 1545 1545 1546 1546 1547 1547 1548 1548 1549 1549 1549 1549 1549 1549
1525 1527 1529 1531 1533 1534 1536 1537 1539 1541 1543 1545 1546 1546 1546 1546 1547 1548 1547 1546 1546 1546 1546 1546 1546 1546 1546 1546 1546 1546 1546 1546 1546 1547 1547 1547 1547 1548 1548 1548 1549 1549 1548
1523 1525 1527 1530 1532 1533 1534 1536 1538 1540 1541 1544 1546 1547 1547 1547 1547 1548 1548 1548 1548 1547 1547 1547 1547 1547 1547 1547 1547 1547 1547 1546 1547 1547 1547 1547 1547 1547 1547 1547 1547 1548 1547
1520 1522 1524 1527 1530 1531 1532 1534 1536 1538 1540 1542 1545 1546 1547 1548 1547 1549 1549 1549 1549 1548 1548 1548 1547 1547 1547 1548 1548 1548 1548 1548 1548 1547 1547 1546 1546 1546 1546 1546 1546 1547 1546
1517 1519 1521 1523 1526 1528 1529 1531 1533 1535 1538 1540 1543 1545 1547 1548 1547 1549 1549 1549 1549 1549 1549 1549 1549 1548 1548 1549 1549 1549 1549 1549 1549 1548 1547 1546 1546 1546 1546 1545 1546 1546 1545
1513 1516 1517 1519 1522 1524 1526 1528 1530 1532 1534 1538 1540 1543 1544 1545 1546 1548 1548 1549 1549 1549 1550 1551 1550 1549 1548 1549 1549 1549 1549 1549 1549 1548 1547 1547 1546 1546 1545 1545 1545 1545 1544
1510 1512 1513 1515 1517 1520 1522 1524 1527 1529 1531 1534 1537 1540 1541 1542 1544 1545 1547 1548 1548 1549 1549 1550 1550 1550 1549 1549 1549 1549 1549 1549 1549 1548 1547 1547 1546 1546 1545 1545 1545 1544 1544
1505 1507 1509 1511 1512 1514 1517 1520 1522 1524 1527 1530 1533 1535 1538 1540 1541 1542 1543 1546 1547 1548 1548 1549 1549 1549 1548 1548 1549 1549 1549 1549 1548 1548 1547 1546 1546 1546 1545 1545 1544 1544 1543
1502 1503 1505 1506 1507 1509 1512 1514 1517 1520 1523 1525 1528 1531 1534 1536 1538 1540 1540 1542 1544 1546 1547 1547 1548 1548 1548 1547 1547 1548 1548 1548 1548 1547 1547 1546 1546 1545 1545 1544 1544 1543 1543
1499 1500 1500 1502 1503 1504 1507 1510 1512 1515 1518 1520 1523 1525 1529 1531 1534 1537 1538 1538 1541 1543 1544 1545 1546 1546 1546 1546 1546 1546 1546 1547 1547 1546 1546 1546 1545 1544 1543 1543 1543 1543 1543
1496 1496 1497 1498 1499 1500 1502 1504 1507 1509 1512 1515 1517 1520 1522 1526 1530 1532 1535 1536 1537 1540 1541 1543 1543 1544 1544 1544 1545 1545 1545 1545 1545 1545 1545 1544 1544 1543 1542 1542 1541 1542 1542
1493 1493 1494 1494 1495 1496 1497 1499 1501 1503 1505 1508 1511 1514 1517 1519 1524 1528 1530 1532 1534 1536 1539 1540 1540 1541 1542 1542 1543 1543 1543 1544 1544 1544 1543 1543 1542 1541 1541 1540 1540 1540 1541
1491 1491 1491 1492 1492 1493 1494 1494 1496 1497 1499 1502 1505 1508 1511 1513 1518 1522 1525 1528 1530 1532 1534 1536 1538 1538 1539 1540 1541 1541 1541 1542 1542 1542 1541 1541 1540 1539 1539 1539 1539 1539 1539
1489 1489 1490 1490 1490 1490 1491 1491 1492 1493 1494 1496 1499 1502 1505 1508 1510 1515 1520 1523 1526 1529 1530 1533 1534 1535 1536 1537 1538 1538 1539 1540 1540 1540 1540 1539 1538 1537 1537 1537 1537 1537 1537
1487 1488 1488 1489 1489 1488 1489 1489 1489 1490 1490 1492 1493 1496 1499 1503 1505 1509 1514 1518 1522 1524 1527 1529 1530 1532 1533 1533 1534 1536 1536 1537 1537 1537 1537 1537 1536 1535 1534 1534 1535 1535 1535
1486 1486 1487 1487 1487 1487 1487 1487 1487 1488 1488 1489 1489 1490 1493 1497 1501 1505 1510 1514 1518 1520 1523 1525 1526 1528 1529 1530 1530 1532 1533 1533 1533 1534 1534 1534 1534 1533 1532 1532 1533 1533 1533
1484 1485 1485 1485 1485 1485 1486 1486 1486 1486 1487 1487 1488 1488 1490 1494 1499 1502 1506 1511 1514 1516 1518 1520 1522 1524 1525 1527 1527 1528 1529 1530 1530 1530 1531 1532 1532 1531 1531 1530 1530 1531 1531
1482 1483 1483 1484 1484 1484 1484 1485 1486 1486 1486 1487 1488 1489 1491 1493 1496 1500 1503 1507 1510 1512 1514 1516 1518 1519 1520 1522 1523 1523 1524 1526 1527 1527 1527 1528 1529 1529 1528 1528 1528 1528 1528
1480 1481 1481 1482 1482 1483 1483 1484 1485 1485 1486 1487 1488 1489 1491 1493 1495 1498 1500 1503 1506 1509 1511 1512 1514 1515 1515 1516 1518 1519 1520 1521 1522 1523 1523 1524 1525 1525 1525 1525 1525 1525 1525
1477 1477 1479 1479 1480 1480 1481 1482 1483 1484 1485 1486 1487 1488 1489 1491 1493 1495 1497 1500 1502 1504 1506 1508 1509 1510 1510 1511 1512 1514 1515 1515 1516 1519 1520 1520 1521 1521 1521 1521 1522 1523 1523
1473 1474 1475 1476 1477 1478 1479 1480 1481 1482 1483 1485 1486 1487 1488 1488 1490 1491 1493 1495 1497 1499 1501 1502 1503 1505 1506 1507 1507 1508 1510 1512 1514 1515 1516 1517 1517 1518 1518 1518 1519 1519 1520
1469 1470 1471 1473 1474 1475 1476 1478 1479 1480 1481 1482 1483 1484 1485 1486 1487 1488 1490 1492 1493 1495 1496 1497 1499 1499 1501 1502 1503 1504 1505 1506 1508 1509 1511 1513 1513 1514 1515 1514 1516 1516 1516
1464 1465 1467 1468 1470 1471 1472 1474 1476 1477 1478 1479 1480 1481 1482 1483 1484 1485 1487 1489 1490 1491 1492 1493 1494 1495 1495 1496 1497 1498 1499 1501 1502 1503 1505 1508 1509 1510 1511 1510 1511 1512 1512